{"data":{"norad_id":53540,"epoch":"2026-09-20T13:11:04.943328Z","epoch_age_seconds":73941,"freshness":"FRESH","line1":"1 53540U 22101P   26263.54936277  .00000164  00000+0  28383-4 0  9993","line2":"2 53540  53.1601 269.0558 0001339  78.4668 281.6474 15.08831388226406","mean_motion":15.08831388,"eccentricity":0.0001339,"inclination_deg":53.1601,"raan_deg":269.0558,"arg_perigee_deg":78.4668,"mean_anomaly_deg":281.6474,"bstar":2.8383e-5,"rev_number":22640,"period_min":95.438099409422,"perigee_km":538.84340481922,"apogee_km":540.69602023683,"semimajor_km":6917.906712528,"source":"CELESTRAK","updated_at":"2026-09-21T09:00:32.901376Z"}}